QPF
0.00 0.00 0.00 0.00 0.00 0.00 0.00 0.00 0.00 0.00 0.00 0.00 0.00 0.00 0.00 0.00 0.00 0.00 0.00 0.00 0.00 0.00 0.00 0.00 0.00 0.00 0.00 0.00 0.00 0.00 0.00 0.00 0.00 0.00 0.00 0.00 0.00 0.00 0.00 0.00 0.00 0.00 0.00 0.00
0.00 0.00 0.00 0.00 0.00 0.00 0.00 0.00 0.00 0.00 0.00 0.00 0.00 0.00 0.00 0.00 0.00 0.00 0.00 0.00 0.00 0.00 0.00 0.00 0.00 0.00 0.00 0.00 0.00 0.00 0.00 0.00 0.00 0.00 0.00 0.00 0.00 0.00 0.00 0.00 0.00 0.00 0.00 0.00
0.00 0.00 0.00 0.00 0.00 0.00 0.00 0.00 0.00 0.00 0.00 0.00 0.00 0.00 0.00 0.00 0.00 0.00 0.00 0.00 0.00 0.00 0.00 0.00 0.00 0.00 0.00 0.00 0.00 0.00 0.00 0.00 0.00 0.00 0.00 0.00 0.00 0.00 0.00 0.00 0.00 0.00 0.00 0.00
0.00 0.00 0.00 0.00 0.00 0.00 0.00 0.00 0.00 0.00 0.00 0.00 0.00 0.00 0.00 0.00 0.00 0.00 0.00 0.00 0.00 0.00 0.00 0.00 0.00 0.00 0.00 0.00 0.00 0.00 0.00 0.00 0.00 0.00 0.00 0.00 0.00 0.00 0.00 0.00 0.00 0.00 0.00 0.00
0.00 0.00 0.00 0.00 0.00 0.00 0.00 0.00 0.00 0.00 0.00 0.00 0.00 0.00 0.00 0.00 0.00 0.00 0.00 0.00 0.00 0.00 0.00 0.00 0.00 0.00 0.00 0.00 0.00 0.00 0.00 0.00 0.00 0.00 0.00 0.00 0.00 0.00 0.00 0.00 0.00 0.00 0.00 0.00
0.00 0.00 0.00 0.00 0.00 0.00 0.00 0.00 0.00 0.00 0.00 0.00 0.00 0.00 0.00 0.00 0.00 0.00 0.00 0.00 0.00 0.00 0.00 0.00 0.00 0.00 0.00 0.00 0.00 0.00 0.00 0.00 0.00 0.00 0.00 0.00 0.00 0.00 0.00 0.00 0.00 0.00 0.00 0.00
0.00 0.00 0.00 0.00 0.00 0.00 0.00 0.00 0.00 0.00 0.00 0.00 0.00 0.00 0.00 0.00 0.00 0.00 0.00 0.00 0.00 0.00 0.00 0.00 0.00 0.00 0.00 0.00 0.00 0.00 0.00 0.00 0.00 0.00 0.00 0.00 0.00 0.00 0.00 0.00 0.00 0.00 0.00 0.00
0.00 0.00 0.00 0.00 0.00 0.00 0.00 0.00 0.00 0.00 0.00 0.00 0.00 0.00 0.00 0.00 0.00 0.00 0.00 0.00 0.00 0.00 0.00 0.00 0.00 0.00 0.00 0.00 0.00 0.00 0.00 0.00 0.00 0.00 0.00 0.00 0.00 0.00 0.00 0.00 0.00 0.00 0.00 0.00
0.00 0.00 0.00 0.00 0.00 0.00 0.00 0.00 0.00 0.00 0.00 0.00 0.00 0.00 0.00 0.00 0.00 0.00 0.00 0.00 0.00 0.00 0.00 0.00 0.00 0.00 0.00 0.00 0.00 0.00 0.00 0.00 0.00 0.00 0.00 0.00 0.00 0.00 0.00 0.00 0.00 0.00 0.00 0.00
0.01 0.00 0.00 0.00 0.00 0.00 0.00 0.00 0.00 0.00 0.00 0.00 0.00 0.00 0.00 0.00 0.00 0.00 0.00 0.00 0.00 0.00 0.00 0.00 0.00 0.00 0.00 0.00 0.00 0.00 0.00 0.00 0.00 0.00 0.00 0.00 0.00 0.00 0.00 0.00 0.00 0.00 0.00 0.00
0.00 0.00 0.00 0.00 0.00 0.00 0.00 0.00 0.00 0.00 0.00 0.00 0.00 0.00 0.00 0.00 0.00 0.00 0.00 0.00 0.00 0.00 0.00 0.00 0.00 0.00 0.00 0.00 0.00 0.00 0.00 0.00 0.00 0.00 0.00 0.00 0.00 0.00 0.00 0.00 0.00 0.00 0.00 0.00
0.00 0.00 0.00 0.00 0.00 0.00 0.00 0.00 0.00 0.00 0.00 0.00 0.00 0.00 0.00 0.00 0.00 0.00 0.00 0.00 0.00 0.00 0.00 0.00 0.00 0.00 0.00 0.00 0.00 0.00 0.00 0.00 0.00 0.00 0.00 0.00 0.00 0.00 0.00 0.00 0.00 0.00 0.00 0.00
0.00 0.00 0.00 0.00 0.00 0.00 0.00 0.00 0.00 0.00 0.00 0.00 0.00 0.00 0.00 0.00 0.00 0.00 0.00 0.00 0.00 0.00 0.00 0.00 0.00 0.00 0.00 0.00 0.00 0.00 0.00 0.00 0.00 0.00 0.00 0.00 0.00 0.00 0.00 0.00 0.00 0.00 0.00 0.00
0.00 0.00 0.00 0.00 0.00 0.00 0.00 0.00 0.00 0.00 0.00 0.00 0.00 0.00 0.00 0.00 0.00 0.00 0.00 0.00 0.00 0.00 0.00 0.00 0.00 0.00 0.00 0.00 0.00 0.00 0.00 0.00 0.00 0.00 0.00 0.00 0.00 0.00 0.00 0.00 0.00 0.00 0.00 0.00
0.00 0.00 0.00 0.00 0.00 0.00 0.00 0.00 0.00 0.00 0.00 0.00 0.00 0.00 0.00 0.00 0.00 0.00 0.00 0.00 0.00 0.00 0.00 0.00 0.00 0.00 0.00 0.00 0.00 0.00 0.00 0.00 0.00 0.00 0.00 0.00 0.00 0.00 0.00 0.00 0.00 0.00 0.00 0.00
0.00 0.00 0.00 0.00 0.00 0.00 0.00 0.00 0.00 0.00 0.00 0.00 0.00 0.00 0.00 0.00 0.00 0.00 0.00 0.00 0.00 0.00 0.00 0.00 0.00 0.00 0.00 0.00 0.00 0.00 0.00 0.00 0.00 0.00 0.00 0.00 0.00 0.00 0.00 0.00 0.00 0.00 0.00 0.00
0.00 0.00 0.00 0.00 0.00 0.00 0.00 0.00 0.00 0.00 0.00 0.00 0.00 0.00 0.00 0.00 0.00 0.00 0.00 0.00 0.00 0.00 0.00 0.00 0.00 0.00 0.00 0.00 0.00 0.00 0.00 0.00 0.00 0.00 0.00 0.00 0.00 0.00 0.00 0.00 0.00 0.00 0.00 0.00
0.00 0.00 0.00 0.00 0.00 0.00 0.00 0.00 0.00 0.00 0.00 0.00 0.00 0.00 0.00 0.00 0.00 0.00 0.00 0.00 0.00 0.00 0.00 0.00 0.00 0.00 0.00 0.00 0.00 0.00 0.00 0.00 0.00 0.00 0.00 0.00 0.00 0.00 0.00 0.00 0.00 0.00 0.00 0.00
0.00 0.01 0.00 0.00 0.00 0.00 0.00 0.00 0.00 0.00 0.00 0.00 0.00 0.00 0.00 0.00 0.00 0.00 0.00 0.00 0.00 0.00 0.00 0.00 0.00 0.00 0.00 0.00 0.00 0.00 0.00 0.00 0.00 0.00 0.00 0.00 0.00 0.00 0.00 0.00 0.00 0.00 0.00 0.00
0.02 0.00 0.00 0.00 0.00 0.00 0.00 0.00 0.00 0.00 0.00 0.00 0.00 0.00 0.00 0.00 0.00 0.00 0.00 0.00 0.00 0.00 0.00 0.00 0.00 0.00 0.00 0.00 0.00 0.00 0.00 0.00 0.00 0.00 0.00 0.00 0.00 0.00 0.00 0.00 0.00 0.00 0.00 0.00
0.00 0.00 0.00 0.00 0.00 0.00 0.00 0.00 0.00 0.00 0.00 0.00 0.00 0.00 0.00 0.00 0.00 0.00 0.00 0.00 0.00 0.00 0.00 0.00 0.00 0.00 0.00 0.00 0.00 0.00 0.00 0.00 0.00 0.00 0.00 0.00 0.00 0.00 0.00 0.00 0.00 0.00 0.00 0.00
0.00 0.00 0.00 0.00 0.00 0.00 0.00 0.00 0.00 0.00 0.00 0.00 0.00 0.00 0.00 0.00 0.00 0.00 0.00 0.00 0.00 0.00 0.00 0.00 0.00 0.00 0.00 0.00 0.00 0.00 0.00 0.00 0.00 0.00 0.00 0.00 0.00 0.00 0.00 0.00 0.00 0.00 0.00 0.00
0.00 0.00 0.00 0.00 0.00 0.00 0.00 0.00 0.00 0.00 0.00 0.00 0.00 0.00 0.00 0.00 0.00 0.00 0.00 0.00 0.00 0.00 0.00 0.00 0.00 0.00 0.00 0.00 0.00 0.00 0.00 0.00 0.00 0.00 0.00 0.00 0.00 0.00 0.00 0.00 0.00 0.00 0.00 0.00
0.00 0.00 0.00 0.00 0.00 0.00 0.00 0.00 0.00 0.00 0.00 0.00 0.00 0.00 0.00 0.00 0.00 0.00 0.00 0.00 0.00 0.00 0.00 0.00 0.00 0.00 0.00 0.00 0.00 0.00 0.00 0.00 0.00 0.00 0.00 0.00 0.00 0.00 0.00 0.00 0.00 0.00 0.00 0.00
0.00 0.00 0.00 0.00 0.00 0.00 0.00 0.00 0.00 0.00 0.00 0.00 0.00 0.00 0.00 0.00 0.00 0.00 0.00 0.00 0.00 0.00 0.00 0.00 0.00 0.00 0.00 0.00 0.00 0.00 0.00 0.00 0.00 0.00 0.00 0.00 0.00 0.00 0.00 0.00 0.00 0.00 0.00 0.00
0.00 0.00 0.00 0.00 0.00 0.00 0.00 0.00 0.00 0.00 0.00 0.00 0.00 0.00 0.00 0.00 0.00 0.00 0.00 0.00 0.00 0.00 0.00 0.00 0.00 0.00 0.00 0.00 0.00 0.00 0.00 0.00 0.00 0.00 0.00 0.00 0.00 0.00 0.00 0.00 0.00 0.00 0.00 0.00
0.00 0.00 0.00 0.00 0.00 0.00 0.00 0.00 0.00 0.00 0.00 0.00 0.00 0.00 0.00 0.00 0.00 0.00 0.00 0.00 0.00 0.00 0.00 0.00 0.00 0.00 0.00 0.00 0.00 0.00 0.00 0.00 0.00 0.00 0.00 0.00 0.00 0.00 0.00 0.00 0.00 0.00 0.00 0.00
MSLP
1008.18 1008.62 1009.83 1010.48 1012.07 1013.42 1014.45 1015.64 1017.05 1018.21 1017.80 1017.50 1017.46 1016.75 1016.35 1015.90 1015.60 1015.49 1015.56 1015.56 1015.95 1016.27 1017.03 1017.90 1018.42 1018.73 1018.51 1018.27 1017.90 1016.83 1016.05 1015.58 1013.40 1012.16 1012.25 1012.57 1012.36 1011.12 1009.96 1009.16 1009.23 1008.93 1008.31 1009.63
1011.09 1010.88 1010.69 1011.67 1012.73 1013.04 1014.11 1016.39 1017.63 1018.34 1018.21 1017.85 1017.60 1017.00 1016.41 1016.09 1015.61 1015.52 1015.39 1015.48 1015.81 1015.96 1016.59 1017.37 1017.68 1017.97 1017.81 1017.83 1017.51 1016.89 1016.04 1015.00 1013.18 1011.81 1011.71 1011.93 1012.01 1011.39 1010.33 1010.00 1009.66 1009.30 1008.76 1010.04
1013.19 1012.88 1012.95 1012.96 1013.13 1013.22 1013.80 1015.75 1017.50 1018.56 1018.39 1018.30 1017.76 1017.05 1016.68 1016.34 1015.96 1015.71 1015.78 1015.83 1015.69 1015.80 1016.40 1016.88 1017.16 1017.20 1017.40 1017.59 1017.29 1016.82 1016.37 1015.43 1014.62 1014.16 1014.08 1014.00 1013.01 1011.83 1010.89 1010.39 1010.20 1010.64 1010.40 1010.64
1014.77 1014.68 1014.41 1014.32 1013.76 1013.59 1013.96 1015.53 1017.30 1017.70 1018.15 1018.07 1017.93 1017.64 1017.17 1016.74 1016.45 1016.33 1016.22 1016.00 1015.82 1015.99 1016.29 1016.63 1016.85 1017.03 1016.91 1017.05 1017.18 1016.65 1016.29 1015.56 1014.99 1014.51 1014.13 1013.75 1013.48 1013.11 1012.60 1011.75 1011.88 1011.84 1012.25 1011.61
1015.80 1015.44 1015.31 1015.07 1014.41 1013.88 1014.71 1015.86 1016.67 1017.74 1018.04 1018.08 1018.09 1017.95 1017.46 1017.15 1017.18 1017.07 1016.74 1016.57 1016.40 1016.39 1016.70 1016.88 1016.83 1017.10 1017.08 1017.04 1016.88 1016.89 1016.57 1015.83 1015.19 1014.29 1013.94 1013.73 1013.42 1013.60 1013.47 1013.49 1013.38 1012.99 1012.64 1012.24
1016.59 1016.37 1016.12 1015.85 1015.03 1014.56 1015.27 1016.73 1016.89 1016.47 1018.08 1018.18 1018.23 1017.85 1017.79 1017.54 1017.39 1017.61 1017.56 1017.29 1016.98 1017.08 1017.41 1017.27 1017.30 1017.24 1017.23 1017.14 1017.03 1016.64 1016.22 1015.63 1014.90 1014.32 1014.00 1013.70 1013.83 1014.67 1014.63 1014.70 1014.67 1014.31 1013.71 1013.77
1016.55 1016.87 1016.89 1016.82 1016.30 1015.89 1016.08 1016.69 1016.75 1016.44 1017.71 1017.85 1018.15 1018.11 1018.04 1017.97 1017.93 1017.80 1018.01 1017.86 1017.57 1018.04 1017.81 1017.69 1017.40 1017.39 1017.22 1017.00 1016.80 1016.84 1016.13 1015.43 1014.87 1014.32 1013.79 1014.13 1015.09 1015.26 1015.41 1015.18 1015.22 1015.14 1014.54 1013.88
1017.03 1017.21 1017.36 1017.30 1017.04 1016.73 1016.90 1017.32 1016.87 1016.71 1017.49 1017.89 1018.38 1018.42 1018.42 1018.51 1018.50 1018.46 1018.44 1018.56 1018.57 1018.30 1017.98 1017.59 1017.27 1017.01 1016.93 1016.65 1016.64 1016.32 1016.05 1015.37 1014.74 1014.23 1014.33 1014.97 1014.97 1015.23 1015.33 1015.13 1015.51 1015.47 1015.01 1014.61
1017.15 1017.60 1017.71 1017.69 1017.61 1017.43 1017.32 1017.77 1017.75 1017.12 1017.36 1018.48 1018.48 1018.66 1018.89 1018.62 1018.68 1018.89 1018.95 1019.07 1018.92 1018.49 1018.04 1017.58 1017.03 1016.75 1016.62 1016.43 1016.33 1016.10 1015.77 1015.36 1014.92 1014.67 1014.34 1014.39 1014.83 1015.33 1015.51 1015.51 1015.52 1015.56 1015.30 1015.01
1017.03 1017.26 1017.78 1017.90 1017.83 1017.78 1017.66 1018.08 1018.20 1017.64 1017.95 1019.10 1019.19 1018.81 1018.92 1019.07 1018.99 1018.82 1019.10 1019.07 1018.95 1018.71 1017.86 1017.35 1016.90 1016.62 1016.97 1016.42 1016.17 1015.96 1015.52 1015.17 1014.99 1014.73 1014.63 1014.66 1015.00 1015.35 1015.38 1015.34 1016.38 1016.13 1015.71 1015.31
1017.34 1017.12 1017.55 1017.89 1017.98 1018.03 1018.15 1018.53 1018.49 1018.17 1018.54 1019.44 1019.47 1019.32 1019.18 1019.36 1019.15 1018.83 1019.24 1019.36 1019.05 1018.76 1017.95 1017.27 1016.76 1016.69 1016.83 1016.71 1016.49 1016.19 1015.83 1015.57 1015.36 1015.43 1015.05 1015.00 1015.41 1015.44 1015.32 1015.65 1015.85 1015.99 1015.99 1015.89
1017.18 1016.98 1017.18 1017.73 1017.90 1018.10 1018.52 1018.56 1018.62 1018.58 1018.62 1019.85 1019.92 1019.71 1019.63 1019.51 1019.32 1019.22 1019.56 1019.09 1018.49 1018.16 1017.71 1017.48 1017.13 1016.86 1017.07 1016.66 1016.07 1016.61 1016.27 1015.73 1015.40 1015.43 1015.15 1015.43 1015.61 1015.40 1015.58 1015.85 1015.89 1016.27 1016.28 1016.15
1017.10 1016.88 1017.06 1017.24 1017.68 1017.88 1018.59 1018.81 1018.80 1018.79 1019.32 1020.11 1020.00 1019.69 1019.74 1019.82 1019.71 1019.67 1019.42 1019.30 1018.86 1018.68 1018.55 1017.72 1017.41 1017.15 1017.01 1016.43 1016.09 1016.10 1016.05 1016.12 1015.67 1015.55 1015.11 1015.38 1015.48 1015.60 1015.66 1015.79 1015.85 1016.15 1016.29 1016.35
1016.65 1016.62 1016.22 1016.84 1017.23 1017.45 1018.37 1018.93 1018.86 1018.95 1019.00 1019.25 1019.68 1019.67 1019.51 1019.58 1019.69 1019.63 1019.53 1019.30 1019.38 1019.05 1018.82 1018.03 1017.58 1017.29 1017.48 1016.78 1016.58 1016.05 1015.66 1015.89 1015.19 1015.05 1015.14 1015.41 1015.44 1015.58 1015.71 1015.91 1016.06 1016.21 1016.26 1016.30
1016.31 1015.78 1015.29 1016.10 1016.95 1017.34 1018.08 1018.75 1018.68 1018.96 1019.39 1019.11 1019.63 1019.74 1019.49 1019.42 1019.44 1019.46 1019.49 1019.47 1019.30 1018.98 1018.75 1018.21 1017.72 1017.76 1017.80 1017.35 1016.95 1015.38 1014.84 1014.34 1014.37 1013.75 1013.80 1014.26 1014.61 1015.56 1015.96 1015.99 1016.15 1016.26 1016.27 1016.34
1016.47 1015.80 1015.85 1016.18 1016.83 1017.24 1017.98 1018.66 1018.41 1018.78 1018.89 1019.07 1019.58 1019.62 1019.45 1019.45 1019.45 1019.51 1019.56 1019.65 1019.53 1019.15 1018.51 1018.27 1018.09 1018.16 1017.99 1017.16 1015.92 1013.64 1013.82 1014.08 1014.05 1014.10 1014.48 1014.89 1015.21 1015.81 1016.11 1016.23 1016.44 1016.64 1016.70 1016.71
1016.49 1016.23 1016.07 1016.30 1016.73 1017.00 1017.72 1018.02 1018.58 1018.88 1019.10 1019.02 1019.40 1019.25 1019.30 1019.40 1019.44 1019.64 1019.74 1019.87 1019.63 1019.33 1018.87 1018.59 1018.21 1018.13 1017.91 1017.02 1015.13 1013.15 1013.60 1014.14 1014.63 1014.81 1015.04 1015.54 1015.75 1015.85 1016.38 1016.51 1016.63 1016.79 1016.90 1017.07
1016.19 1016.38 1016.21 1016.36 1016.95 1017.25 1017.52 1017.73 1017.92 1018.76 1019.16 1019.04 1018.99 1019.10 1019.26 1019.25 1019.22 1019.42 1019.78 1019.67 1019.63 1019.35 1018.89 1018.85 1018.24 1018.22 1017.75 1015.86 1013.18 1013.44 1013.80 1014.34 1014.85 1015.08 1015.44 1015.42 1015.85 1016.39 1016.70 1016.92 1017.05 1017.12 1017.23 1017.47
1015.85 1016.17 1016.60 1016.98 1017.08 1017.49 1017.57 1017.64 1017.93 1018.45 1019.68 1018.85 1018.54 1018.27 1018.38 1018.91 1019.09 1019.21 1019.64 1019.57 1019.46 1019.45 1018.68 1018.23 1018.03 1016.84 1015.52 1012.43 1012.42 1012.90 1013.44 1013.67 1014.22 1015.31 1015.76 1016.09 1016.26 1016.67 1017.06 1017.31 1017.53 1017.55 1017.69 1017.91
1015.52 1016.44 1016.97 1017.29 1017.15 1017.06 1017.51 1017.86 1017.95 1018.45 1018.24 1018.43 1017.72 1017.88 1018.23 1018.44 1018.81 1019.11 1019.20 1019.31 1019.05 1018.86 1017.89 1017.92 1017.15 1014.47 1012.21 1011.89 1011.91 1012.26 1013.14 1013.83 1014.41 1015.12 1015.91 1016.26 1016.59 1016.90 1017.25 1017.55 1017.80 1017.99 1018.15 1018.26
1015.41 1016.22 1017.06 1017.44 1017.32 1017.27 1017.61 1017.69 1017.71 1017.10 1017.06 1016.52 1016.68 1017.12 1017.77 1018.39 1018.03 1018.50 1018.74 1018.55 1018.80 1018.38 1017.33 1017.21 1015.77 1013.16 1010.95 1010.85 1011.56 1012.38 1013.12 1013.86 1014.49 1014.94 1015.40 1015.99 1016.34 1017.03 1017.53 1017.93 1018.25 1018.44 1018.55 1018.56
1014.56 1015.58 1016.86 1017.50 1017.42 1016.97 1016.87 1016.70 1016.15 1015.85 1015.00 1015.38 1016.12 1016.57 1016.71 1017.61 1017.64 1017.85 1018.72 1018.25 1018.51 1017.47 1017.06 1016.78 1014.43 1010.91 1010.62 1011.10 1011.77 1012.66 1013.41 1014.21 1014.97 1015.48 1015.93 1016.53 1017.04 1017.52 1017.95 1018.35 1018.60 1018.84 1018.96 1019.02
1015.03 1015.26 1016.12 1016.39 1015.96 1015.72 1014.99 1014.58 1014.26 1014.00 1014.05 1014.40 1015.22 1016.07 1016.20 1017.27 1017.26 1017.44 1017.81 1017.76 1017.36 1016.86 1016.51 1014.32 1011.27 1010.41 1010.92 1011.54 1012.34 1013.18 1013.94 1014.73 1015.48 1016.16 1016.62 1017.05 1017.57 1018.05 1018.37 1018.65 1018.93 1019.05 1019.14 1019.17
1013.65 1013.75 1014.07 1013.85 1012.91 1011.71 1010.54 1010.50 1010.75 1011.23 1011.91 1012.68 1013.87 1015.64 1015.51 1015.80 1016.48 1016.61 1016.74 1016.72 1016.59 1016.12 1014.89 1011.74 1009.45 1009.81 1010.89 1011.77 1012.55 1013.27 1014.22 1015.03 1015.79 1016.43 1017.06 1017.53 1018.06 1018.47 1018.79 1018.98 1019.19 1019.27 1019.25 1019.20
1011.82 1011.75 1010.90 1010.14 1009.22 1009.30 1009.49 1009.92 1010.32 1010.70 1011.08 1011.67 1013.36 1015.14 1015.41 1015.32 1015.77 1015.70 1016.14 1016.28 1014.86 1013.42 1011.14 1009.35 1008.78 1009.64 1010.76 1011.89 1012.85 1013.62 1014.50 1015.33 1016.20 1016.93 1017.51 1018.03 1018.42 1018.78 1019.03 1019.25 1019.40 1019.36 1019.21 1019.16
1009.64 1008.83 1008.51 1008.70 1008.92 1009.38 1009.72 1009.73 1009.93 1010.36 1010.81 1011.71 1012.56 1013.69 1014.66 1014.27 1013.98 1014.44 1013.53 1013.01 1011.37 1009.44 1008.84 1008.36 1009.05 1010.07 1010.98 1011.96 1012.95 1013.84 1014.80 1015.70 1016.46 1017.18 1017.72 1018.13 1018.49 1018.78 1019.04 1019.37 1019.39 1019.32 1019.27 1019.30
1007.30 1006.88 1006.83 1007.39 1007.78 1007.91 1008.71 1009.21 1009.42 1009.76 1010.56 1010.85 1011.74 1012.67 1012.30 1012.83 1012.69 1012.06 1011.43 1010.44 1008.59 1008.09 1008.25 1008.80 1009.41 1010.37 1011.25 1012.28 1013.22 1014.27 1015.28 1016.10 1016.66 1017.24 1017.84 1018.23 1018.45 1018.70 1018.93 1018.95 1019.03 1018.99 1018.99 1019.16
Thickness
5541 5536 5522 5515 5502 5492 5485 5476 5471 5458 5463 5469 5467 5481 5486 5491 5494 5490 5484 5482 5477 5475 5467 5449 5441 5440 5434 5446 5446 5451 5458 5450 5473 5489 5484 5469 5460 5480 5496 5514 5506 5500 5517 5503
5535 5533 5531 5519 5509 5503 5492 5473 5469 5463 5466 5469 5475 5485 5493 5492 5497 5492 5488 5484 5482 5482 5474 5463 5460 5453 5459 5454 5454 5455 5463 5474 5489 5505 5503 5494 5479 5492 5498 5492 5498 5508 5524 5509
5527 5526 5522 5517 5512 5509 5507 5495 5479 5470 5473 5475 5483 5495 5495 5495 5494 5496 5490 5484 5486 5486 5479 5474 5468 5470 5464 5457 5458 5459 5460 5474 5475 5474 5462 5460 5477 5496 5510 5516 5517 5509 5502 5503
5522 5518 5516 5513 5516 5518 5517 5505 5489 5488 5486 5489 5488 5488 5493 5495 5493 5493 5492 5490 5488 5486 5482 5480 5474 5472 5472 5467 5458 5463 5467 5479 5479 5478 5478 5482 5484 5485 5495 5498 5501 5505 5495 5499
5521 5522 5520 5520 5523 5527 5517 5515 5505 5493 5491 5492 5492 5488 5497 5497 5490 5489 5492 5489 5486 5487 5479 5478 5478 5472 5471 5468 5470 5454 5463 5482 5480 5492 5494 5495 5496 5491 5502 5498 5498 5505 5510 5509
5521 5521 5521 5522 5527 5530 5523 5506 5507 5521 5491 5495 5498 5503 5499 5501 5497 5490 5485 5489 5490 5486 5476 5477 5476 5478 5476 5473 5471 5476 5476 5485 5495 5492 5498 5503 5506 5481 5484 5485 5484 5493 5503 5497
5525 5523 5521 5519 5520 5523 5523 5514 5518 5529 5507 5512 5507 5500 5500 5500 5497 5499 5489 5491 5495 5482 5475 5475 5477 5476 5477 5479 5479 5474 5484 5490 5495 5501 5508 5503 5488 5489 5481 5485 5485 5486 5498 5507
5522 5521 5520 5519 5518 5519 5519 5515 5521 5526 5517 5514 5503 5502 5500 5497 5494 5493 5492 5486 5482 5481 5482 5487 5486 5490 5489 5490 5488 5490 5487 5494 5500 5507 5499 5494 5497 5494 5492 5493 5489 5490 5498 5501
5521 5516 5516 5516 5516 5516 5517 5513 5513 5522 5526 5515 5507 5507 5502 5508 5504 5499 5490 5486 5484 5488 5490 5494 5493 5499 5493 5494 5495 5494 5494 5497 5505 5499 5506 5510 5506 5497 5492 5495 5500 5495 5499 5500
5519 5517 5512 5513 5512 5513 5514 5511 5511 5519 5516 5500 5500 5514 5512 5501 5501 5508 5495 5494 5494 5490 5504 5504 5507 5509 5490 5503 5497 5497 5502 5503 5506 5514 5506 5510 5503 5496 5496 5512 5501 5488 5496 5500
5511 5513 5510 5508 5508 5507 5508 5507 5507 5513 5510 5498 5497 5499 5504 5500 5504 5514 5500 5502 5498 5497 5505 5511 5515 5509 5505 5500 5497 5499 5504 5501 5498 5497 5507 5511 5496 5499 5510 5504 5495 5493 5492 5495
5505 5507 5508 5503 5504 5502 5500 5504 5503 5504 5507 5499 5494 5495 5496 5499 5502 5505 5494 5503 5502 5512 5517 5509 5509 5512 5497 5506 5523 5491 5506 5511 5517 5513 5517 5498 5496 5501 5498 5496 5497 5492 5493 5495
5497 5499 5501 5501 5497 5498 5495 5495 5497 5500 5498 5492 5495 5498 5495 5495 5496 5495 5511 5501 5501 5499 5496 5509 5510 5513 5508 5521 5520 5510 5504 5496 5510 5506 5509 5503 5504 5502 5502 5500 5500 5497 5496 5495
5491 5491 5496 5495 5493 5493 5490 5489 5490 5492 5495 5503 5497 5492 5495 5494 5493 5494 5495 5498 5494 5495 5496 5508 5513 5516 5501 5515 5509 5513 5521 5504 5516 5515 5508 5506 5508 5507 5505 5502 5500 5499 5498 5497
5486 5490 5494 5490 5487 5485 5484 5482 5484 5483 5487 5500 5489 5487 5490 5491 5493 5493 5493 5494 5497 5501 5504 5510 5516 5505 5501 5499 5499 5517 5519 5529 5528 5540 5534 5528 5521 5506 5500 5502 5500 5499 5499 5498
5473 5481 5480 5478 5477 5478 5474 5474 5478 5476 5479 5483 5486 5483 5487 5487 5488 5489 5489 5488 5490 5495 5506 5508 5501 5494 5502 5510 5520 5541 5529 5524 5527 5533 5520 5514 5510 5502 5497 5498 5495 5491 5490 5490
5461 5465 5468 5467 5468 5470 5465 5471 5467 5467 5468 5476 5472 5480 5484 5485 5485 5484 5485 5482 5486 5491 5495 5496 5500 5498 5498 5507 5523 5544 5530 5524 5514 5514 5512 5506 5502 5504 5494 5491 5489 5486 5484 5480
5452 5449 5453 5455 5453 5455 5458 5457 5459 5457 5459 5465 5466 5473 5477 5481 5484 5486 5478 5483 5482 5485 5492 5485 5494 5491 5494 5509 5541 5528 5523 5517 5510 5509 5503 5506 5499 5491 5486 5483 5480 5478 5475 5469
5443 5439 5437 5438 5441 5441 5446 5445 5447 5448 5445 5460 5465 5474 5481 5474 5477 5479 5476 5478 5486 5479 5490 5493 5492 5509 5511 5546 5541 5530 5522 5521 5516 5502 5496 5493 5492 5485 5479 5475 5469 5468 5464 5457
5432 5425 5422 5421 5429 5431 5430 5430 5434 5436 5444 5448 5469 5468 5471 5473 5472 5474 5476 5473 5484 5486 5496 5485 5495 5523 5542 5539 5537 5535 5523 5518 5510 5500 5491 5487 5483 5479 5473 5468 5462 5457 5451 5445
5417 5410 5407 5408 5412 5414 5412 5417 5424 5439 5448 5457 5465 5466 5461 5461 5471 5472 5471 5474 5473 5481 5498 5492 5508 5527 5544 5540 5532 5524 5519 5511 5506 5501 5497 5489 5485 5474 5465 5457 5450 5443 5438 5433
5406 5400 5391 5389 5391 5398 5403 5407 5419 5432 5461 5452 5455 5457 5463 5456 5461 5465 5455 5469 5458 5487 5484 5483 5505 5545 5536 5529 5524 5515 5511 5503 5494 5490 5484 5476 5469 5461 5454 5446 5438 5430 5423 5416
5384 5384 5378 5378 5383 5389 5397 5412 5422 5431 5443 5447 5448 5451 5451 5445 5453 5455 5452 5458 5467 5474 5480 5510 5544 5535 5525 5520 5512 5505 5500 5492 5484 5477 5472 5465 5457 5448 5442 5435 5426 5418 5411 5405
5377 5379 5379 5380 5390 5411 5437 5451 5458 5455 5449 5451 5455 5437 5449 5450 5447 5448 5457 5462 5461 5472 5487 5522 5548 5533 5521 5513 5508 5500 5491 5484 5477 5469 5462 5455 5446 5438 5430 5423 5414 5407 5401 5394
5367 5370 5386 5392 5417 5410 5420 5422 5432 5437 5443 5450 5442 5427 5433 5435 5433 5446 5442 5441 5463 5487 5526 5542 5536 5526 5515 5505 5497 5492 5483 5470 5460 5452 5445 5438 5430 5424 5418 5411 5403 5397 5390 5382
5360 5367 5379 5383 5397 5397 5401 5409 5422 5427 5433 5429 5430 5425 5422 5440 5444 5438 5457 5472 5492 5529 5524 5528 5515 5512 5507 5500 5491 5483 5473 5463 5454 5445 5438 5431 5423 5416 5409 5399 5392 5385 5377 5367
5357 5371 5381 5389 5393 5409 5404 5403 5414 5420 5421 5430 5423 5432 5461 5423 5436 5454 5465 5483 5524 5523 5510 5505 5509 5503 5496 5487 5477 5467 5457 5450 5444 5437 5429 5423 5415 5407 5400 5394 5386 5378 5369 5356